{"data":{"norad_id":62427,"epoch":"2026-05-24T16:36:08.517600Z","epoch_age_seconds":91943,"freshness":"FRESH","line1":"1 62427U 24249U   26144.69176525  .00025847  00000+0  94486-3 0  9999","line2":"2 62427  42.9997 245.1603 0001723 269.2292  90.8362 15.27602087 79438","mean_motion":15.27602087,"eccentricity":0.0001723,"inclination_deg":42.9997,"raan_deg":245.1603,"arg_perigee_deg":269.2292,"mean_anomaly_deg":90.8362,"bstar":0.00094486,"rev_number":7943,"period_min":94.26538574767,"perigee_km":481.80078944359,"apogee_km":484.16513138194,"semimajor_km":6861.1199604128,"source":"CELESTRAK","updated_at":"2026-05-25T13:38:19.655928Z"}}